Probability
10 13 13 7 4 5 7 7 6 4 2 1 1 4 6 6 6 5 5 2 0 0 0 0 0 0 0 0 0 0 0 0 0 0 0 0 0 0
10 11 11 7 4 4 5 8 8 7 5 3 3 3 5 6 7 6 5 3 1 0 0 0 0 0 0 0 0 0 0 0 0 0 0 0 0 0
13 12 10 8 5 4 6 9 11 11 8 6 5 5 5 6 8 7 5 3 1 0 0 0 0 0 0 0 0 0 0 0 0 0 0 0 0 0
17 15 11 8 8 7 7 11 13 12 10 8 7 6 6 6 7 7 5 2 1 0 0 0 0 0 0 0 0 0 0 0 0 0 0 0 0 0
18 16 12 9 11 11 10 12 13 13 11 9 7 6 6 6 7 7 5 3 2 1 0 0 0 0 0 0 0 0 0 0 0 0 0 0 0 0
19 17 14 12 11 11 12 13 14 14 11 8 6 6 6 6 7 6 3 3 4 2 1 1 1 0 0 0 0 0 0 0 0 0 0 0 0 0
18 16 14 12 10 9 10 12 13 13 11 8 7 6 6 6 6 4 2 1 3 2 2 2 2 1 1 1 0 0 0 0 0 0 0 0 0 0
19 17 14 13 11 8 6 6 8 9 8 8 9 9 8 7 5 4 2 1 2 2 2 2 3 3 3 3 1 0 0 0 0 0 0 0 0 0
23 22 18 16 14 10 6 3 4 4 4 6 9 9 8 7 6 4 3 2 3 3 3 2 3 3 3 3 2 1 0 0 0 0 0 0 0 0
24 24 22 20 16 11 7 5 5 3 1 2 5 6 6 5 5 4 3 3 4 4 3 3 3 3 3 3 2 1 0 0 0 0 0 0 0 0
23 22 22 19 13 7 6 6 6 5 3 1 2 2 2 2 3 3 3 3 3 3 3 3 4 4 4 4 3 2 1 0 0 0 0 0 0 0
21 20 17 13 7 3 3 5 6 6 5 3 2 1 1 2 2 2 3 2 1 2 2 3 5 5 5 5 4 3 2 1 0 0 0 0 0 0
19 17 13 7 3 1 1 2 3 4 4 3 3 2 3 3 4 4 4 3 2 2 2 4 4 5 5 5 4 4 4 4 2 1 0 0 0 0
14 12 8 3 1 0 0 0 0 1 1 1 2 3 4 4 4 5 5 4 4 4 4 4 4 4 4 4 3 3 4 5 4 3 2 1 0 0
6 5 3 1 0 0 0 0 0 0 0 1 2 3 4 4 3 4 4 4 5 5 4 4 3 3 3 3 3 2 3 4 4 4 4 2 1 0
2 1 1 1 1 1 1 0 0 1 1 2 3 4 3 3 3 3 3 3 4 3 3 2 2 3 3 2 1 1 1 2 3 4 4 3 1 1
2 2 2 3 3 3 3 2 2 2 3 3 4 4 2 2 3 3 3 3 2 1 1 1 1 1 2 1 0 0 0 1 2 2 2 2 2 2
3 3 4 5 5 5 6 5 5 4 4 4 4 3 1 1 3 3 2 1 1 0 0 0 0 0 0 0 0 1 0 0 1 1 1 1 1 1
3 3 4 5 6 6 7 7 6 6 5 4 3 2 1 1 2 2 1 0 0 0 0 0 0 0 0 0 0 0 0 0 0 0 0 0 0 0
3 3 3 4 5 6 7 7 7 6 6 5 4 3 1 0 1 1 0 0 0 0 0 0 0 0 0 0 0 0 0 0 0 0 0 0 0 0
3 3 4 5 5 6 7 7 6 6 6 6 4 3 2 0 0 0 0 0 0 0 0 0 0 0 0 0 0 0 0 0 0 0 0 0 0 0
3 4 5 6 6 6 6 6 5 4 5 5 5 3 1 0 0 0 0 0 0 0 0 0 0 0 0 0 0 0 0 0 0 0 0 0 0 0
3 4 6 6 6 6 6 6 4 4 4 4 4 3 1 0 0 0 0 0 0 0 0 0 0 0 0 0 0 0 0 0 0 0 0 0 0 0
Wind_Speed
1 1 1 2 1 1 1 2 2 2 1 1 1 1 3 4 5 5 5 8 8 7 7 7 7 7 6 6 5 5 5 5 4 2 1 0 0 1
1 2 2 2 2 1 1 1 1 2 2 1 1 2 3 4 5 5 6 9 8 8 8 8 8 8 7 7 6 5 5 5 5 4 4 4 3 3
2 1 1 2 2 2 1 0 0 1 2 2 2 3 3 4 4 4 5 4 5 8 8 8 8 8 8 8 7 8 7 7 7 7 6 6 5 5
1 2 2 2 2 2 2 1 0 1 2 3 2 2 2 3 3 3 3 4 4 7 8 8 8 7 7 7 7 7 7 7 7 7 7 7 6 6
1 2 2 2 2 2 2 2 1 0 1 3 3 2 2 2 2 2 3 3 4 6 6 7 8 7 7 6 6 6 6 6 6 6 6 6 6 6
2 2 3 3 3 2 2 2 1 1 1 2 2 3 2 1 2 2 2 1 2 3 3 5 7 7 7 6 5 5 5 5 5 5 6 5 5 5
2 3 5 6 7 5 3 3 3 2 1 1 2 2 2 2 1 1 2 1 1 2 2 2 4 3 3 4 5 4 4 4 4 4 4 4 4 4
2 2 3 4 5 7 8 7 6 4 3 2 1 1 2 1 1 1 2 1 1 1 1 1 2 2 2 3 5 6 5 4 3 3 2 2 2 2
2 2 2 4 4 3 4 5 6 6 4 2 2 2 1 1 1 1 1 1 1 1 1 0 1 1 2 3 8 8 7 6 5 4 3 2 1 1
3 3 3 3 4 3 3 4 4 4 3 3 2 2 3 1 0 1 1 1 0 1 1 0 1 1 1 2 7 8 8 7 7 5 4 4 2 2
3 4 3 3 6 5 3 3 3 3 4 5 4 3 3 3 2 1 1 1 0 1 1 0 1 1 1 2 4 8 7 8 7 7 6 5 4 3
2 3 6 5 6 5 3 3 2 2 2 2 2 2 1 2 1 1 1 1 1 0 1 1 1 1 1 1 2 3 3 5 6 6 6 6 5 3
2 3 4 6 5 5 4 2 2 2 1 1 1 1 1 1 2 1 1 1 1 1 1 1 1 1 1 0 0 2 2 2 3 3 5 6 5 4
3 3 3 4 4 4 3 3 4 3 2 1 2 2 1 1 1 1 1 1 1 1 0 1 1 1 1 1 1 0 1 1 1 2 2 3 5 5
3 4 3 2 2 2 2 3 2 2 1 2 2 2 2 2 2 1 1 0 0 1 1 1 1 1 1 1 1 1 0 1 1 1 1 2 2 3
1 2 1 1 1 1 1 1 1 1 1 1 2 2 2 1 1 1 1 1 1 1 0 1 1 1 1 1 1 1 1 1 1 1 1 2 2 2
1 1 1 1 1 1 1 1 1 2 2 2 2 2 2 1 1 1 1 1 1 1 1 1 1 0 1 1 1 1 1 1 1 1 1 1 1 1
2 1 1 1 1 1 1 1 2 2 2 1 1 1 1 1 1 1 1 1 1 1 1 1 1 1 1 1 1 2 1 2 1 1 1 2 2 2
2 0 0 1 1 1 1 1 2 2 1 1 1 1 2 2 1 1 1 1 1 1 1 1 1 1 2 2 2 2 1 2 2 2 2 2 2 2
0 0 1 1 1 1 1 1 1 1 1 1 1 2 2 2 2 1 1 1 1 2 1 1 1 1 2 3 2 3 3 2 2 2 2 2 2 2
0 1 1 2 1 1 2 2 1 1 1 1 1 1 1 2 2 2 2 2 2 2 2 2 2 3 3 2 2 2 2 3 4 3 2 2 2 2
1 2 2 2 2 2 2 2 2 1 1 1 1 1 1 1 2 2 2 2 2 3 3 2 2 2 2 3 4 3 2 2 3 5 5 4 3 3
2 2 2 2 2 2 2 2 2 2 2 2 2 2 2 2 2 2 3 2 2 3 3 3 2 2 3 3 3 3 3 3 2 2 2 5 8 9
Wind_Direction
336 318 316 311 299 270 224 183 182 192 176 150 120 124 117 112 130 123 115 107 104 95 89 83 78 76 74 70 66 58 52 47 38 28 16 287 228 207
350 350 336 324 327 314 291 215 198 179 154 132 123 110 102 117 119 118 119 115 107 106 99 91 83 77 72 68 62 57 53 49 49 59 68 74 84 87
316 335 340 334 330 328 319 252 206 138 143 135 122 115 107 113 121 123 127 122 112 114 112 105 96 88 82 76 70 63 58 56 57 60 65 71 78 81
333 355 351 340 341 330 328 328 11 140 145 145 140 134 121 124 126 128 128 131 127 124 123 117 108 101 95 88 78 69 62 62 63 64 68 70 72 74
29 15 357 360 2 357 356 2 0 288 137 144 147 127 118 131 125 123 116 119 134 135 131 127 123 117 110 101 90 79 69 64 64 65 65 65 67 71
50 49 30 24 14 7 9 9 6 1 81 127 131 129 122 133 134 141 120 124 127 138 134 137 140 137 129 120 109 96 86 79 72 66 63 60 57 59
57 63 65 66 56 47 40 29 22 24 31 81 107 112 120 142 169 176 131 155 143 145 151 153 151 152 152 145 134 128 119 107 93 80 72 70 67 64
57 59 94 84 82 77 67 57 52 50 32 44 63 104 116 137 166 177 151 178 203 161 150 170 157 161 161 160 163 162 159 149 138 123 103 93 87 76
47 38 33 46 66 78 86 74 62 60 61 54 55 41 94 119 175 197 183 220 223 174 151 213 148 147 165 164 171 176 176 174 170 167 164 155 152 187
39 41 49 39 28 42 69 75 68 54 58 78 74 47 47 28 215 195 184 154 95 50 94 203 218 201 162 163 179 183 187 188 189 192 194 197 207 242
54 42 46 50 45 52 65 65 60 56 62 80 88 91 81 53 28 46 51 94 45 58 29 303 232 227 187 176 185 194 196 196 202 207 211 216 224 241
77 69 54 55 59 55 63 67 52 29 41 65 75 71 91 88 89 94 49 15 0 52 22 349 308 318 254 180 180 187 197 208 212 219 225 231 231 229
61 69 61 59 62 57 53 53 32 5 11 40 97 110 109 92 95 85 59 64 51 15 354 345 328 336 316 312 214 190 191 189 194 221 231 233 233 226
56 68 77 64 60 57 55 40 28 25 25 33 51 50 57 60 52 68 83 83 124 139 28 25 3 344 330 331 316 234 211 195 191 208 205 215 229 231
64 69 65 49 58 72 59 43 39 40 37 36 34 31 39 45 43 48 85 83 93 89 71 43 340 315 308 299 310 326 276 249 211 236 226 219 226 217
94 94 71 16 0 54 50 39 56 47 37 28 28 34 33 32 33 25 16 4 19 18 46 52 339 324 299 318 332 322 320 290 258 251 245 243 238 210
69 132 134 139 125 111 110 87 64 64 47 20 20 22 14 9 2 348 328 332 346 351 352 326 292 294 312 313 299 295 288 289 279 261 261 269 265 238
82 89 68 53 43 54 46 54 55 50 39 30 22 355 332 326 327 350 360 356 344 337 326 304 316 312 297 326 302 278 272 270 276 272 271 271 279 276
93 84 76 50 39 48 43 45 56 53 36 12 356 340 332 326 331 348 351 348 327 318 317 326 337 324 301 295 290 275 277 283 287 278 260 258 271 273
113 281 99 84 65 42 32 37 40 51 48 14 359 349 344 338 335 341 340 342 322 309 319 343 341 307 284 291 289 279 255 250 255 265 272 268 267 273
126 58 69 70 59 52 38 29 23 20 12 348 341 327 330 331 333 333 329 333 314 303 311 302 281 273 273 287 281 268 255 243 235 238 252 259 274 280
58 54 50 47 41 39 37 19 2 355 346 335 330 331 333 332 324 319 314 308 298 295 297 290 290 283 281 279 281 280 277 277 254 246 243 236 236 248
66 55 54 48 45 41 31 5 355 356 356 353 349 340 342 335 321 321 318 313 311 309 304 298 296 292 288 284 285 287 286 280 275 264 256 254 248 250